This is the latest recevied weather packets stored in our database for station/object HB9TJM-8. If no packets are shown the sender has not sent any weather packets the latest 10 day(s).
| Time | Temp. | Humidity | Pressure | Rain* | Wind** | Luminosity | Snow |
|---|---|---|---|---|---|---|---|
| 1777907792 | 9.44° C | 78% | 1015.6 hPa | 0.76 mm | - | 88 W/m² | - |
| 1777907792 | 9.44° C | 78% | 1015.6 hPa | 0.76 mm | - | 88 W/m² | - |
| 1777907484 | 9.44° C | 78% | 1015.7 hPa | 1.02 mm | - | 103 W/m² | - |
| 1777907484 | 9.44° C | 78% | 1015.7 hPa | 1.02 mm | - | 103 W/m² | - |
| 1777907177 | 9.44° C | 79% | 1015.8 hPa | 1.02 mm | - | 122 W/m² | - |
| 1777907177 | 9.44° C | 79% | 1015.8 hPa | 1.02 mm | - | 122 W/m² | - |
| 1777906869 | 9.44° C | 80% | 1015.7 hPa | 0.76 mm | - | 111 W/m² | - |
| 1777906869 | 9.44° C | 80% | 1015.7 hPa | 0.76 mm | - | 111 W/m² | - |
| 1777906562 | 9.44° C | 79% | 1015.8 hPa | 0.76 mm | - | 113 W/m² | - |
| 1777906254 | 9.44° C | 77% | 1016.1 hPa | 1.02 mm | - | 112 W/m² | - |
| 1777906254 | 9.44° C | 77% | 1016.1 hPa | 1.02 mm | - | 112 W/m² | - |
| 1777905946 | 9.44° C | 77% | 1015.9 hPa | 1.02 mm | - | 115 W/m² | - |
| 1777905639 | 9.44° C | 77% | 1015.7 hPa | 1.02 mm | - | 137 W/m² | - |
| 1777905331 | 10° C | 74% | 1015.9 hPa | 1.02 mm | - | 140 W/m² | - |
| 1777905023 | 10° C | 76% | 1015.7 hPa | 1.02 mm | - | 153 W/m² | - |
| 1777904715 | 10° C | 80% | 1016 hPa | 1.02 mm | - | 123 W/m² | - |
| 1777904408 | 10° C | 80% | 1015.8 hPa | 1.02 mm | - | 129 W/m² | - |
| 1777904408 | 10° C | 80% | 1015.8 hPa | 1.02 mm | - | 129 W/m² | - |
| 1777904100 | 10° C | 83% | 1016 hPa | 1.27 mm | - | 174 W/m² | - |
| 1777904100 | 10° C | 83% | 1016 hPa | 1.27 mm | - | 174 W/m² | - |
| 1777903793 | 10° C | 81% | 1016.1 hPa | 1.27 mm | - | 168 W/m² | - |
| 1777903485 | 10° C | 82% | 1015.9 hPa | 1.27 mm | - | 156 W/m² | - |
| 1777903178 | 10° C | 81% | 1015.7 hPa | 1.27 mm | - | 123 W/m² | - |
| 1777902870 | 10° C | 82% | 1015.7 hPa | 1.52 mm | - | 107 W/m² | - |
| 1777902563 | 10° C | 81% | 1015.6 hPa | 1.52 mm | - | 105 W/m² | - |
* Rain latest hour (hover to see other rain measurements)
** Current wind speed in m/s (hover to see current wind gust speed)